STARLINK-33809, 63508

Orbit data source: Space-Track

STARLINK-33809, 63508 is a payload satellite owned by SpaceX/Seattle (US) in LEO that was launched on Mon, 07 Apr 2025 UTC via an FALCON 9 launch vehicle from the Air Force Western Test Range (AFWTR). Payload-class satellites include a variety of spacecraft equipped with specific instruments for various scientific and technological missions. These include communications satellites like Starlink; space stations such as the ISS; scientific satellites like the Hubble; Earth observation satellites from companies like Planet Labs, Umbra, and HawkEye 360; GPS; miniature CubeSats for education and research; and military/defense satellites.

Loading next visibility...
Identifier
63508, 2025-071R
Orbit
LEO
Country
Flag of USUS
Related business
Manufacturer
SpaceX/Seattle
Mission
Operational Commercial Communications
Bus & Motor
STARLINK V2MO, Unknown motor
Mass
575 kg wet, ~530 kg dry
Launch date (UTC)
2025-04-07 (1 year ago)
Launch vehicle
FALCON 9
Launch site
Air Force Western Test Range (AFWTR)
Object type
Payload
Rocket body
Debris
Shape & HBR
Box + 1 Pan, 17.7 m
Radar Cross Section
41.120 m², Large (>1 m²)

Expand to show TLE details & history
Last TLE update: 13 hours ago

TLE from 13 hours ago
0 STARLINK-33809
1 63508U 25071R   26262.88487311  .00014009  00000-0  42497-3 0  9998
2 63508  53.1591 316.3409 0001080  96.1023 264.0102 15.34399732 82465
Epoch: 2026-09-19T21:14Z
TLE epoch observation values (Epoch: 2026-09-19T21:14:13.036Z)
Latitude
-0.00008°
Longitude
-1.00048°
Altitude
463.682 km
Speed
7.636 km/s
True Right ascension
21h 05m 21s
True Declination
0° 00' 00"
Sunlit
Object was in full shadow at epoch
Visualization orbit readout
Latitude
Unknown
Longitude
Unknown
Altitude
Unknown
Speed
Unknown
Apparent Right ascension
Unknown
Apparent Declination
Unknown
Sunlit
N/A
Visualization observer readout
Local Sidereal Time
03:41:00
Azimuth
Unknown
Elevation
Unknown
Doppler factor
Unknown
Orbital elements
Apogee altitude
463.7 km
Perigee altitude
462.222 km
Semi-major axis
6,841.098 km
Eccentricity
0.00011
Inclination
53.1591°
RAAN
316.3409°
Arg. of periapsis
96.1023°
True anomaly
263.99789°
Mean anomaly
264.0102°
Eccentric anomaly
264.00405°
Mean motion
3.83579 °/min
Orbital period
93.85 mins
BSTAR
0.00042497
Loading maneuver chart data...
Computing Atmospheric mass density...
Loading historical data...
Loading historical data...
Loading historical data...
Loading historical data...
Loading historical data...
Loading historical data...
Loading historical data...

Documentation

Showing up to 5 results
|